Find Kosmos-2439

NORAD ID: 32956 Int'l Des: 2008-025 Owner: KVR Country: RU operational
LEOCIRCULARPOLAR

Live Position

Loading 3D Globe...

About Kosmos-2439

Description loading...

Upcoming Passes

Passes for default location (London). Set your location on the main map for personalized predictions.

Altitude History

Loading altitude history...

Two-Line Element Set

1 32956U 08025D 26105.95645701 -.00000013 00000-0 -16918-3 0 9995
2 32956 82.5097 36.4725 0022007 89.8720 270.4882 12.43068748811981
Epoch: Apr 15, 2026 • Age: 4 hours

Current Status

Altitude 1489.2 km
Velocity 7.13 km/s
Sub-Earth Point 67.31°N, 57.39°W
Launch Date May 23, 2008
Age 17.8 years
Type other

Technical Details

Classification Payload
Mass 225.00 kg
Dry Mass 225.00 kg
Total Mass 225.00 kg
Length 1.60 m
Diameter 0.80 m
Span 7.00 m
Shape Cyl + Ant
Manufacturer RESH
Bus Type Strela-3
Phase Status In Orbit
Owner/State KVR/RU

Most Searched